Regional Weather Roundup
Issued by NWS New Orleans/Baton Rouge, LA

Home | Current Version | Previous Version | Text Only | Print | Product List | Glossary On
Versions: 1 2 3 4 5 6 7 8 9 10 11 12 13 14 15 16 17 18 19 20 21 22 23 24 25 26 27 28 29 30 31 32 33 34 35 36 37 38 39 40 41 42 43 44 45 46 47 48 49 50
000
ASUS44 KLIX 200910
RWRLIX
NEW ORLEANS REGIONAL WEATHER ROUNDUP
NATIONAL WEATHER SERVICE NEW ORLEANS LA
400 AM CDT MON OCT 20 2014

NOTE: "FAIR" INDICATES FEW OR NO CLOUDS BELOW 12,000 FEET WITH NO
      SIGNIFICANT WEATHER AND/OR OBSTRUCTIONS TO VISIBILITY.
      SKY/WX - SKY CONDITION AND SIGNIFICANT WEATHER.
      TMP - AIR TEMPERATURE.     DP    - DEWPOINT TEMPERATURE.
      RH  - RELATIVE HUMIDITY.   PRES  - PRESSURE.
      HI  - HEAT INDEX.          WCI   - WIND CHILL INDEX.

*  THESE STATIONS ARE NOT NWS OR FAA STATIONS AND ARE NOT UNDER
   NWS QUALITY CONTROL.

LAZ038-040-048-061>063-065>067-069-201000-
SOUTHEAST LOUISIANA

CITY           SKY/WX    TMP DP  RH WIND       PRES   REMARKS
N.O. AUDUBON     N/A     62  59  91 MISG        N/A
N.O. INTL ARPT CLEAR     59  55  87 CALM      30.03F
N.O. LAKEFRONT CLEAR     68  57  68 NE5       30.04F
N.O. DOWNTOWN*   N/A     66  55  68 NE5       30.04S
SLIDELL        PTCLDY    50  47  89 CALM      30.04F
BATON ROUGE    PTCLDY    54  51  90 NE5       30.05S
BOOTHVILLE     CLEAR     70  61  73 E3        30.02F
BELLE CHASSE   CLEAR     56  52  86 CALM      30.03F
BOGALUSA*        N/A     47  44  88 CALM      30.08S
NEW ROADS*       N/A     53  52  97 CALM      30.05F
GONZALES*        N/A     55  55 100 CALM      30.03F
HAMMOND*       CLEAR     50  48  93 N3        30.06F
HOUMA*         CLEAR     58  58  99 CALM      30.02F FOG
PORT FOURCHON* SUNNY     70  61  73 NE6       30.05S

$$

MSZ070-080>082-201000-
SOUTHERN MISSISSIPPI

CITY           SKY/WX    TMP DP  RH WIND       PRES   REMARKS
MCCOMB         CLEAR     50  46  86 CALM      30.06S
GULFPORT       CLEAR     53  49  86 CALM      30.04S
BILOXI         PTCLDY    55  50  83 N3        30.04F
PASCAGOULA     CLEAR     47  46  97 CALM      30.04F

$$

COASTAL OBSERVATIONS
LAKE AND NEARSHORE STATIONS

STATION/POSITION TIME  TEMP    WIND        PRES    WAVE
                       AIR SEA DIR/SP/G            HT/PER
                 (UTC) (F)     (DEG/KT/KT) (MB)    (FT/S)
PASCAGOULA       0900   57      40/  5/  5 1016.6
WAVELAND YACHT   0900   62      20/  4/  5 1016.5
GRAND ISLE       0900   72 78   70/  8/ 10 1016.9
SOUTHWEST PASS   0900   74 84              1016.4
NEW CANAL        0900   64 72   CALM  /  2 1017.3
SHELL BEACH      0900   69 70   50/  6/  7 1016.6

OFFSHORE STATIONS

STATION/POSITION TIME  TEMP    WIND        PRES    WAVE
                       AIR SEA DIR/SP/G            HT/PER
                 (UTC) (F)     (DEG/KT/KT) (MB)    (FT/S)
64 S DAUPHIN ISL 0824   73 79   80/ 10/ 12 1016.9    2/ 6

$$



USA.gov is the U.S. government's official web portal to all federal, state and local government web resources and services.